This is the latest recevied weather packets stored in our database for station/object KC1IUC-15. If no packets are shown the sender has not sent any weather packets the latest 10 day(s).
| Time | Temp. | Humidity | Pressure | Rain* | Wind** | Luminosity | Snow |
|---|---|---|---|---|---|---|---|
| 1777673704 | 17.78° C | 32% | 1009.3 hPa | 0 mm | - | 53 W/m² | - |
| 1777673403 | 17.78° C | 32% | 1008.9 hPa | 0 mm | - | 53 W/m² | - |
| 1777673103 | 18.33° C | 31% | 1009.3 hPa | 0 mm | - | 73 W/m² | - |
| 1777672804 | 18.33° C | 30% | 1009.3 hPa | 0 mm | - | 180 W/m² | - |
| 1777672503 | 17.78° C | 31% | 1009.3 hPa | 0 mm | - | 180 W/m² | - |
| 1777672204 | 17.78° C | 30% | 1009.3 hPa | 0 mm | - | 125 W/m² | - |
| 1777671904 | 17.78° C | 30% | 1009.3 hPa | 0 mm | - | 125 W/m² | - |
| 1777671603 | 18.33° C | 31% | 1009.6 hPa | 0 mm | - | 122 W/m² | - |
| 1777671303 | 18.33° C | 30% | 1009.3 hPa | 0 mm | - | 191 W/m² | - |
| 1777671004 | 17.78° C | 31% | 1009.3 hPa | 0 mm | - | 246 W/m² | - |
| 1777670703 | 18.33° C | 30% | 1009.3 hPa | 0 mm | - | 188 W/m² | - |
| 1777670404 | 18.89° C | 30% | 1009.3 hPa | 0 mm | - | 214 W/m² | - |
| 1777670103 | 18.33° C | 30% | 1009.3 hPa | 0 mm | - | 301 W/m² | - |
| 1777669804 | 17.78° C | 31% | 1009.3 hPa | 0 mm | - | 325 W/m² | - |
| 1777669503 | 18.33° C | 29% | 1009.3 hPa | 0 mm | - | 333 W/m² | - |
| 1777669203 | 18.33° C | 30% | 1009.3 hPa | 0 mm | - | 343 W/m² | - |
| 1777668903 | 18.89° C | 28% | 1009.6 hPa | 0 mm | - | 345 W/m² | - |
| 1777668603 | 19.44° C | 29% | 1009.3 hPa | 0 mm | - | 212 W/m² | - |
| 1777668303 | 19.44° C | 29% | 1009.3 hPa | 0 mm | - | 212 W/m² | - |
| 1777668003 | 18.89° C | 28% | 1009.3 hPa | 0 mm | - | 200 W/m² | - |
| 1777667703 | 18.89° C | 31% | 1009.3 hPa | 0 mm | - | 377 W/m² | - |
| 1777667403 | 18.33° C | 29% | 1008.9 hPa | 0 mm | - | 419 W/m² | - |
| 1777667103 | 18.33° C | 29% | 1009.3 hPa | 0 mm | - | 468 W/m² | - |
| 1777666803 | 17.78° C | 31% | 1009.6 hPa | 0 mm | - | 484 W/m² | - |
| 1777666503 | 18.33° C | 30% | 1009.3 hPa | 0 mm | - | 245 W/m² | - |
* Rain latest hour (hover to see other rain measurements)
** Current wind speed in m/s (hover to see current wind gust speed)